TimeEDT,TemperatureF,Dew PointF,Humidity,Sea Level PressureIn,VisibilityMPH,Wind Direction,Wind SpeedMPH,Gust SpeedMPH,PrecipitationIn,Events,Conditions,WindDirDegrees,DateUTC
12:38 AM,55.4,50.0,82,29.99,10.0,North,8.1,-,N/A,,Mostly Cloudy,350,2013-06-03 04:38:00
12:54 AM,55.9,50.0,80,29.99,10.0,North,6.9,-,N/A,,Mostly Cloudy,350,2013-06-03 04:54:00
1:54 AM,55.0,48.9,80,30.00,10.0,NNW,5.8,-,N/A,,Mostly Cloudy,340,2013-06-03 05:54:00
2:54 AM,52.0,46.9,83,29.99,10.0,NNW,8.1,-,N/A,,Partly Cloudy,330,2013-06-03 06:54:00
3:54 AM,51.1,44.1,77,29.99,10.0,NNW,6.9,-,N/A,,Clear,340,2013-06-03 07:54:00
4:54 AM,48.9,43.0,80,30.00,10.0,North,3.5,-,N/A,,Clear,360,2013-06-03 08:54:00
5:54 AM,48.0,42.1,80,30.02,10.0,NNE,5.8,-,N/A,,Clear,20,2013-06-03 09:54:00
6:54 AM,48.0,42.1,80,30.03,10.0,North,4.6,-,N/A,,Partly Cloudy,360,2013-06-03 10:54:00
7:54 AM,50.0,42.1,74,30.05,10.0,North,5.8,-,N/A,,Scattered Clouds,360,2013-06-03 11:54:00
8:54 AM,52.0,43.0,71,30.05,10.0,NE,5.8,-,N/A,,Partly Cloudy,50,2013-06-03 12:54:00
9:54 AM,55.0,45.0,69,30.07,10.0,Variable,3.5,-,N/A,,Scattered Clouds,0,2013-06-03 13:54:00
10:52 AM,57.2,46.4,67,30.08,10.0,North,9.2,-,N/A,,Mostly Cloudy,360,2013-06-03 14:52:00
10:54 AM,57.9,46.9,67,30.08,10.0,North,8.1,-,N/A,,Mostly Cloudy,10,2013-06-03 14:54:00
11:54 AM,59.0,46.0,62,30.09,10.0,North,6.9,-,N/A,,Mostly Cloudy,10,2013-06-03 15:54:00
12:49 PM,60.8,46.4,59,30.07,10.0,North,9.2,-,N/A,,Mostly Cloudy,10,2013-06-03 16:49:00
12:54 PM,60.1,46.0,60,30.07,10.0,NNE,8.1,-,N/A,,Mostly Cloudy,20,2013-06-03 16:54:00
1:54 PM,62.1,46.9,58,30.05,10.0,NE,5.8,-,N/A,,Mostly Cloudy,50,2013-06-03 17:54:00
2:54 PM,63.0,46.9,56,30.04,10.0,ENE,5.8,-,N/A,,Mostly Cloudy,70,2013-06-03 18:54:00
3:54 PM,66.0,48.0,52,30.02,10.0,North,3.5,-,N/A,,Scattered Clouds,10,2013-06-03 19:54:00
4:54 PM,66.9,48.0,51,30.01,10.0,Calm,Calm,-,N/A,,Scattered Clouds,0,2013-06-03 20:54:00
5:54 PM,66.9,46.0,47,30.01,10.0,ENE,3.5,-,N/A,,Scattered Clouds,60,2013-06-03 21:54:00
6:54 PM,68.0,45.0,43,30.01,10.0,NE,5.8,-,N/A,,Scattered Clouds,40,2013-06-03 22:54:00
7:54 PM,66.0,44.1,45,30.02,10.0,NNE,9.2,-,N/A,,Partly Cloudy,20,2013-06-03 23:54:00
8:54 PM,63.0,44.1,50,30.03,10.0,NNE,8.1,-,N/A,,Partly Cloudy,30,2013-06-04 00:54:00
9:54 PM,60.1,41.0,49,30.05,10.0,NE,6.9,-,N/A,,Clear,40,2013-06-04 01:54:00
10:54 PM,59.0,42.1,53,30.06,10.0,NNE,5.8,-,N/A,,Clear,30,2013-06-04 02:54:00
11:54 PM,57.0,43.0,59,30.07,10.0,NNE,5.8,-,N/A,,Clear,20,2013-06-04 03:54:00